This is the latest recevied weather packets stored in our database for station/object LU8MPR-10. If no packets are shown the sender has not sent any weather packets the latest 10 day(s).
| Time | Temp. | Humidity | Pressure | Rain* | Wind** | Luminosity | Snow |
|---|---|---|---|---|---|---|---|
| 1778173969 | 17.78° C | 16% | 1014.2 hPa | - | - | - | - |
| 1778173069 | 17.78° C | 17% | 1014.5 hPa | - | - | - | - |
| 1778172169 | 17.78° C | 16% | 1014.6 hPa | - | - | - | - |
| 1778171268 | 17.78° C | 16% | 1014.7 hPa | - | - | - | - |
| 1778170368 | 17.78° C | 15% | 1014.9 hPa | - | - | - | - |
| 1778169468 | 17.78° C | 17% | 1015.3 hPa | - | - | - | - |
| 1778168567 | 17.78° C | 16% | 1015.5 hPa | - | - | - | - |
| 1778167667 | 17.78° C | 18% | 1015.9 hPa | - | - | - | - |
| 1778166766 | 17.78° C | 19% | 1016 hPa | - | - | - | - |
| 1778165866 | 17.78° C | 18% | 1016 hPa | - | - | - | - |
| 1778164965 | 17.78° C | 20% | 1016 hPa | - | - | - | - |
| 1778164065 | 17.78° C | 20% | 1016.1 hPa | - | - | - | - |
| 1778163164 | 17.78° C | 21% | 1016.1 hPa | - | - | - | - |
| 1778162264 | 17.78° C | 22% | 1016.2 hPa | - | - | - | - |
| 1778161363 | 17.78° C | 24% | 1016.2 hPa | - | - | - | - |
| 1778160463 | 17.78° C | 25% | 1016.2 hPa | - | - | - | - |
| 1778159563 | 17.78° C | 25% | 1016.1 hPa | - | - | - | - |
| 1778158663 | 17.78° C | 25% | 1016.1 hPa | - | - | - | - |
| 1778157762 | 17.22° C | 23% | 1016.3 hPa | - | - | - | - |
| 1778156862 | 17.22° C | 23% | 1016.3 hPa | - | - | - | - |
| 1778155961 | 17.78° C | 28% | 1015.9 hPa | - | - | - | - |
| 1778155061 | 17.78° C | 28% | 1015.8 hPa | - | - | - | - |
| 1778154160 | 17.78° C | 28% | 1015.7 hPa | - | - | - | - |
| 1778153260 | 17.78° C | 28% | 1015.5 hPa | - | - | - | - |
| 1778152360 | 17.78° C | 28% | 1015.1 hPa | - | - | - | - |
* Rain since midnight (hover to see other rain measurements)
** Current wind speed in m/s (hover to see current wind gust speed)